Tracking 19246 objects as of 20-Aug-2018
HD Live streaming from Space Station
objects crossing your sky now

SHIJIAN-15 (SJ-15)

Track SHIJIAN-15 (SJ-15) now!
10-day predictions
SHIJIAN-15 (SJ-15) is classified as:


NORAD ID: 39210
Int'l Code: 2013-037C
Perigee: 671.8 km
Apogee: 679.9 km
Inclination: 98.0 °
Period: 98.1 minutes
Semi major axis: 7046 km
RCS: Unknown
Launch date: July 19, 2013
Source: People's Republic of China (PRC)
Launch site: Taiyaun Space Center, China (TSC)

SHIJIAN 15 is a technology satellite, precise mission unknown at present.
aabbcc
Your satellite tracking list
Your tracking list is empty




NASA's NSSDC Master Catalog

Two Line Element Set (TLE):
1 39210U 13037C   18231.94214951 +.00000078 +00000-0 +22155-4 0  9993
2 39210 098.0006 237.5825 0005789 213.8125 146.2725 14.67614825274793
Source of the keplerian elements: AFSPC